GFSSE_con_mucape_336.txt.gz
CAPE
173 411 1713 1385 1297 1377 1459 1487 1434 1377 1906 1974 2122 1899 2049 2284 2308 2575 2111 2031 1897 1975 1810 1891 1836 1842 1891 1886 1782 977 1846 1914 1784 1542 1518 1672 1586 1601 1869 1918 1736 1461 1823
304 1071 1742 1695 1419 1349 1434 1382 1724 1703 1768 1777 2155 2336 2299 2048 2014 2207 2202 1877 1874 2065 1762 1774 1732 1764 1576 1730 1768 1831 1760 1766 1772 1726 1238 1154 1366 1679 1617 1507 1576 1463 1666
764 1320 1046 1863 1870 1391 1735 1622 1658 1272 1406 1698 1981 1986 2137 1943 1971 1991 1906 1882 1245 1378 1425 1692 1893 1777 1729 1671 1322 1478 1826 1673 1620 1357 1292 870 1170 1246 1360 1535 1777 1776 1702
858 1147 1263 1998 1984 1542 1597 1920 1885 1516 1506 1516 1729 1925 1760 1890 1900 1981 1885 1751 1318 1389 1149 1185 1758 1776 1778 1459 975 764 1009 1424 1277 1035 626 971 1019 1474 1471 1446 1546 1789 1824
765 1311 1542 2101 1792 1465 1340 1520 1684 1345 1515 1530 1597 1710 1651 1654 1753 1772 1877 1840 1784 1677 1342 1014 879 1049 859 800 854 859 1016 650 775 313 195 737 1172 1486 1610 1678 1560 1641 1654
551 995 1848 1679 1223 1331 1294 1322 1486 1410 1234 1502 1328 1495 1567 1480 1804 1732 1516 985 981 1331 1372 1405 1533 1289 1175 787 435 445 756 1245 759 279 198 656 1023 1680 1522 1735 1638 1727 1741
761 1248 1149 1797 1502 1438 1277 1371 1304 1546 1193 1380 1482 1533 1710 1716 1590 1535 1588 1082 757 719 683 873 1139 1147 1142 1112 717 827 1089 1364 194 234 464 671 1232 1732 1685 1353 1750 1812 1700
871 1038 1139 1552 1678 1445 1270 1230 1300 1333 1519 1497 1379 1532 1632 1522 1339 1202 1112 1097 1248 1206 1263 771 626 557 591 743 881 822 1030 957 129 332 716 1119 1556 1580 1388 1437 1472 1434 1500
739 946 971 1034 822 1126 1224 1229 1392 1114 1310 1145 1212 1440 1343 1307 1638 1478 1479 1393 1131 1075 1094 1042 927 689 506 500 347 801 1021 812 31 170 652 1124 1772 1344 1178 1225 1259 1356 1405
536 766 862 781 782 1187 1211 1474 1354 1194 1179 1239 1487 1270 1125 1003 919 936 1380 1209 965 778 724 707 707 690 695 688 622 525 862 790 189 452 599 990 1931 1136 1080 1163 1123 1304 1356
496 748 848 873 1126 949 1068 1034 1287 1324 1163 1123 871 820 911 348 400 436 672 1043 840 712 814 912 1092 1109 925 1213 1495 1101 854 103 241 362 532 1195 1414 711 696 989 1125 1246 1203
342 344 586 1020 961 538 977 855 642 408 407 398 390 314 528 280 195 376 460 827 1016 1018 816 1173 1111 1157 1331 408 196 572 128 96 109 175 258 1199 869 764 836 782 960 1054 1289
248 198 403 610 473 270 904 881 572 359 373 354 282 239 380 387 372 521 512 448 381 579 527 665 891 633 859 321 40 27 80 266 156 86 102 537 333 341 910 959 688 771 861
122 148 261 300 314 356 572 687 532 421 323 283 282 248 469 647 415 379 359 288 258 196 62 130 86 326 425 294 47 186 281 309 167 122 48 433 247 129 590 780 858 669 736
171 108 139 207 396 421 525 398 465 713 677 452 428 500 472 544 452 307 208 258 312 119 1 7 20 215 391 221 352 249 295 154 123 101 66 189 361 277 159 213 395 572 630
242 164 210 176 311 358 758 620 553 754 747 805 628 470 450 574 379 462 263 74 39 89 28 26 57 218 311 177 323 208 333 119 24 40 44 186 690 514 447 373 144 227 507
239 176 201 231 385 620 872 826 1054 928 699 453 660 530 656 789 616 759 735 418 310 216 195 131 160 220 252 212 217 222 235 212 203 87 73 60 495 919 636 621 517 185 209
216 203 467 532 540 538 761 605 228 350 545 367 473 821 1109 991 1007 990 1136 823 648 417 344 202 142 222 180 79 25 50 455 358 408 329 324 236 334 743 803 923 704 479 346
238 172 665 733 769 536 474 217 252 161 517 464 866 907 865 246 715 905 1313 1110 828 589 567 334 183 160 120 337 209 111 503 347 649 1008 649 604 508 466 548 968 867 688 576
251 312 500 541 660 503 406 349 130 508 583 636 638 524 582 675 571 1132 1366 1120 765 535 617 409 211 152 175 532 856 551 503 300 467 295 81 596 599 585 365 452 567 481 640
461 456 589 566 494 383 487 354 507 549 766 596 680 607 745 991 1190 1407 1471 1279 738 797 672 586 415 454 619 415 599 618 621 549 505 519 375 443 617 647 473 409 512 330 555
560 540 712 610 485 480 422 428 621 755 758 466 784 770 1129 1363 1627 1680 1304 908 758 1211 1178 873 734 620 665 627 486 440 578 754 696 565 352 443 597 694 654 569 514 431 312
283 277 524 491 568 443 291 351 790 1301 982 729 1069 990 1558 1694 1641 1520 1412 1334 844 942 1045 1094 827 508 774 681 464 158 481 345 724 579 486 458 562 655 568 669 571 486 443
312 288 508 457 642 432 375 649 1027 1107 941 668 1412 1210 1598 1744 1907 1790 1710 1315 1141 873 1228 1182 1284 1291 760 1054 1043 1000 649 490 415 582 697 720 633 705 538 648 616 531 409
197 294 659 405 709 666 765 1169 1140 1011 905 873 1063 1213 1493 1866 1776 1624 1454 1462 871 886 1241 1247 1297 1222 1356 1218 1120 1376 1129 596 427 483 708 669 646 564 531 637 443 332 289
217 314 869 619 681 697 662 1008 1324 1626 812 1331 1806 1351 1779 1985 1582 1849 1403 947 775 1209 868 1307 883 1020 886 883 754 637 785 1060 704 428 453 602 518 498 367 423 305 260 164

GFSSE_con_mucape_339.txt.gz
CAPE
120 381 1657 1564 1551 1608 1457 1387 1687 1786 1955 1751 2032 2083 1741 1571 1890 1996 1883 1733 1828 1696 1242 1633 1905 1655 1272 1214 1340 1944 1663 1223 1284 1661 1577 1736 1851 1707 1593 1638 1800 1402 1650
204 621 1896 2051 1397 1381 1387 1562 1739 1771 1747 1856 2193 2089 2068 1564 1488 1742 2033 1753 1817 1763 1540 1326 1383 1161 1346 1254 1118 1914 1993 1818 1534 1590 1535 1614 1642 1706 1540 1556 1569 1426 1634
639 1022 1411 2162 1624 1524 1543 1559 1689 1624 1665 1996 2234 2219 1871 1905 1921 1846 1514 1384 1536 1421 1472 1411 1135 1529 1529 1675 1435 1760 1802 1662 1469 1399 1488 1067 1283 1566 1516 1523 1424 1596 1654
1085 863 1293 2206 2075 1761 1650 1759 1806 1400 1533 1770 1945 2070 1952 1966 1763 1671 1522 1365 1410 1214 1565 1318 1350 1509 1317 874 1250 1613 1707 1584 1376 1300 853 1091 802 1403 1566 1455 1534 1474 1564
1032 1117 1454 1961 2144 1851 1794 1488 1433 1545 1582 1752 1750 1615 1391 1412 1672 1870 1713 1453 1695 1241 998 1299 1328 1044 1075 976 877 952 1277 933 1183 350 603 943 1100 1334 1390 1450 1395 1466 1568
1220 1568 1666 1562 1390 1378 1693 1554 1435 1523 1634 1648 1733 1482 1567 1890 1694 1073 1020 1293 1709 1427 1397 978 602 629 498 573 703 755 887 744 685 130 604 1175 888 1491 1518 1535 1497 1343 1258
1290 1388 1093 2125 1716 1475 1533 1639 1374 1433 1560 1424 1495 1430 1389 1578 1462 1720 1133 713 666 704 945 1184 1033 973 1046 522 623 739 1023 1072 217 170 250 701 1068 1960 1403 1541 1624 1571 1531
1302 1216 1071 1614 1590 1343 1506 1396 1678 1380 1519 1686 1630 1656 1592 1515 1488 1378 958 993 1091 1155 906 665 641 634 768 702 739 799 1174 851 210 317 559 976 1614 1800 1153 1482 1601 1506 1652
1160 1169 1121 1336 1185 1292 1271 1413 1365 1633 1625 1470 1480 1427 1440 1346 1576 1146 1259 1094 1098 1008 1231 1088 850 604 513 462 644 880 1297 811 185 332 898 923 2053 1649 1328 1367 1373 1333 1467
961 1071 1118 1098 761 894 1060 1508 1321 1565 1331 1217 1224 1179 1151 1157 1310 1258 1371 1202 988 819 767 805 754 732 744 791 673 681 769 777 165 354 953 912 1823 1216 1169 1173 1236 1220 1334
758 931 896 768 822 1115 1184 1353 1278 1393 1338 1503 1374 1121 972 617 506 554 754 1090 967 851 754 816 979 992 972 1274 1199 910 912 184 252 365 655 1374 1474 1117 1138 1139 1139 1265 1320
552 727 690 731 1002 1055 1043 1045 1009 1048 957 816 582 369 461 239 110 223 432 865 950 1114 924 935 1193 1088 1130 418 368 665 136 70 186 266 320 1285 1001 967 1044 1102 1195 1309 1189
430 414 572 808 1033 695 875 843 623 400 386 304 231 184 316 259 242 241 427 490 716 600 661 646 597 529 734 177 91 66 37 178 37 223 214 799 531 402 887 932 1078 1171 1303
337 225 283 568 900 458 758 758 607 282 260 187 160 109 183 352 463 326 406 231 250 160 160 165 53 39 262 304 30 44 93 269 90 72 101 447 327 207 738 859 916 985 1030
239 170 269 367 446 336 448 462 548 319 263 144 160 216 237 368 475 371 265 199 237 224 15 0 4 73 117 298 129 107 241 196 156 141 35 162 222 282 482 830 809 769 862
146 133 180 277 321 377 407 460 301 256 383 476 481 414 401 440 412 411 237 175 151 131 27 11 5 32 205 322 197 290 243 169 171 140 79 9 423 430 475 509 720 722 750
219 117 127 208 287 389 379 559 541 546 677 749 626 729 411 475 570 511 523 518 327 180 133 53 34 84 294 213 180 183 274 195 173 134 76 8 279 733 422 565 447 459 648
272 171 221 183 381 319 379 577 729 695 587 568 652 427 572 717 766 688 737 886 663 410 284 213 118 196 283 173 66 220 309 263 278 290 135 96 167 599 690 603 619 392 442
278 222 190 277 392 446 523 672 486 285 468 509 377 545 738 930 880 818 835 1060 820 465 330 149 98 167 247 208 163 26 220 511 406 557 386 268 237 409 633 862 881 714 523
279 221 275 447 512 503 566 688 481 411 337 575 517 775 811 647 356 513 1242 1087 651 468 592 138 172 181 187 242 578 589 527 528 359 654 553 473 529 559 511 514 712 727 818
264 239 404 695 639 560 665 423 191 183 581 732 652 630 658 668 643 1179 1316 1080 588 494 431 394 291 310 353 464 557 556 596 561 452 515 431 274 586 568 513 401 583 453 621
289 258 444 788 847 696 455 324 382 524 706 756 731 619 838 985 1222 1431 1192 1118 704 959 807 638 549 514 514 488 556 533 565 614 736 694 585 482 564 745 680 517 472 399 360
303 300 307 634 633 564 335 270 544 949 949 829 762 800 967 1283 1410 1618 1168 1025 725 1053 920 681 606 568 637 601 462 309 462 524 666 660 511 360 482 523 666 678 584 500 367
329 293 376 494 609 487 422 300 594 708 1051 929 774 889 989 1540 1521 1577 1434 1208 762 740 899 1105 926 543 659 606 677 655 497 514 494 428 625 646 622 575 622 543 610 547 433
346 432 504 646 670 499 415 332 437 606 1072 1029 955 1051 1097 1574 1683 1651 1570 1077 818 933 1001 955 1043 1171 950 1057 1127 1156 1123 703 429 489 475 532 602 596 677 534 553 489 409
239 386 428 463 570 530 395 490 686 808 935 895 1011 937 1121 1446 1756 1652 1288 1367 660 823 970 1104 1186 1158 983 1026 756 664 990 1014 636 398 434 508 532 508 560 487 547 337 285

GFSSE_con_mucape_342.txt.gz
CAPE
173 249 991 1171 1454 1409 1196 1073 1427 1896 2295 2320 2218 1721 1487 1561 1564 1831 1707 1703 1595 1292 1912 1813 1402 1142 1320 1592 1241 1286 1298 1717 1653 1741 1882 1831 1838 1779 1870 1801 1587 1270 1762
209 467 1343 1622 1232 1250 1486 1359 1526 1806 1750 1780 1897 1759 1944 1900 1712 1579 1796 1818 1651 1152 1583 1242 1430 1423 952 1735 1653 1629 1514 1505 1652 1587 1506 1718 1750 1730 1660 1546 1618 1318 1539
304 699 1010 1777 1556 1494 1468 1460 1331 1648 1647 1698 1660 2143 1811 1687 1789 1623 1661 1605 1518 1226 1226 1316 1188 1479 1211 1297 1774 1811 1889 1460 1747 1618 1565 1447 1500 1573 1509 1575 1648 1491 1490
874 799 1232 1530 1985 1349 1306 1582 1550 1513 1721 1717 1899 2209 1942 1829 1566 1355 1548 1268 1619 1516 1522 1470 1504 1365 1232 1598 1682 1741 1458 1388 1411 1596 1040 1013 1159 1546 1450 1521 1500 1545 1598
714 891 1213 1902 2215 1736 1408 1430 1756 1729 1789 1736 1735 1861 2093 1865 1866 1629 1463 1280 1204 1357 1474 1376 1357 1180 956 913 1244 1562 1385 1361 1202 625 766 986 1470 1507 1450 1302 1469 1420 1443
999 1075 1394 1619 1780 1631 1491 1511 1511 1633 1789 1634 1550 1647 1680 1429 1488 1626 1867 1737 1283 906 724 784 825 856 897 902 804 791 801 1317 435 328 727 1511 1364 1465 1546 1488 1637 1548 1476
1109 1128 1277 2028 1508 1512 1497 1538 1505 1620 1665 1715 1467 1565 1702 1636 1734 1014 610 640 742 1091 1196 740 777 661 455 536 702 802 1149 1079 126 302 680 789 983 1981 1515 1517 1437 1482 1508
1297 1063 1141 1702 1478 1545 1577 1337 1431 1493 1457 1470 1555 1621 1472 1366 1586 1255 813 734 875 749 658 808 783 763 603 661 771 858 1188 1112 157 364 606 1052 1539 1622 1468 1467 1534 1554 1589
1240 1144 1150 1375 1096 1331 1429 1539 1492 1429 1551 1609 1623 1698 1552 1267 1234 1125 1091 1042 1183 1090 1162 781 554 450 498 533 855 873 939 851 142 481 997 857 1379 1585 1481 1460 1513 1348 1564
1236 1104 1187 1333 990 981 1044 1348 1423 1577 1475 1461 1530 1364 1244 1335 1530 1283 1430 1241 1042 948 958 912 839 759 765 711 661 542 1028 652 195 496 916 1150 1212 1342 1306 1488 1394 1512 1315
987 1006 1173 966 755 849 1018 1309 1216 1564 1253 1307 1187 1157 975 749 694 717 894 1114 1118 955 781 824 897 792 828 920 791 775 755 193 324 606 689 1151 1359 1083 1065 1148 1272 1406 1331
703 878 922 709 714 967 1094 1234 1115 1004 1066 1040 1091 747 553 348 125 410 628 878 925 1180 1092 926 1172 1060 1296 294 667 898 227 223 334 422 723 1486 895 712 969 1155 1249 1343 1326
577 813 735 636 802 874 935 958 1011 902 792 538 364 204 271 265 235 154 198 422 496 478 495 810 1006 187 705 160 116 266 122 135 76 231 425 1028 482 296 753 1051 1102 1278 1245
345 414 465 555 793 717 593 804 737 372 233 236 167 114 135 275 357 488 347 282 193 181 139 132 57 19 353 401 118 48 44 376 106 278 244 235 267 423 428 921 1026 1178 1199
319 268 210 357 541 719 375 562 667 433 278 159 57 74 157 248 301 494 291 335 205 183 62 47 26 27 84 334 176 150 268 279 149 182 84 156 40 368 590 758 904 954 1031
383 225 218 216 305 423 362 314 359 321 291 249 263 320 363 381 492 443 369 205 137 175 87 19 2 24 131 307 373 272 237 222 164 145 66 38 298 290 451 720 757 829 854
283 151 249 264 246 342 346 330 458 388 398 411 519 565 560 575 423 542 455 332 280 301 257 118 16 74 162 267 198 264 293 248 149 156 120 117 44 501 606 577 500 718 802
172 55 120 318 264 254 324 372 444 621 690 683 613 591 553 537 635 662 564 561 662 546 396 249 80 136 260 244 151 259 337 348 236 258 249 199 139 357 709 562 627 465 636
290 194 103 132 315 355 293 315 491 636 270 440 462 488 453 704 873 870 760 824 815 457 337 235 197 202 218 153 187 101 191 503 511 559 369 272 226 347 502 814 622 678 571
276 236 207 213 243 341 371 330 458 613 419 354 502 487 619 672 681 379 602 1052 573 482 388 149 139 164 180 242 657 529 446 575 416 887 682 577 499 427 552 708 895 898 791
274 246 205 165 195 320 362 412 405 577 160 353 550 508 693 647 789 772 1044 1112 490 438 439 140 128 221 255 296 452 490 546 574 471 592 520 230 354 693 466 589 735 711 737
270 257 192 155 156 335 417 439 538 287 246 500 656 608 603 697 972 1193 1143 1074 568 603 546 456 404 367 385 392 466 451 470 601 730 704 641 426 455 699 546 573 633 623 571
215 251 216 184 189 410 555 533 488 574 631 718 706 625 637 911 1207 1418 1249 885 757 1046 943 815 695 570 587 507 435 217 453 469 525 627 512 386 463 561 768 741 600 638 501
260 214 256 201 289 610 694 562 258 518 652 916 842 609 682 871 1344 1439 1401 1056 740 811 826 871 747 543 671 652 566 564 395 616 588 536 545 557 456 623 607 704 774 698 619
92 164 229 202 290 559 688 386 223 334 477 802 921 967 917 1072 1528 1638 1562 1149 987 970 868 997 1079 1109 793 933 918 971 1099 939 516 366 692 601 547 605 621 622 675 679 520
82 128 188 194 286 372 513 346 292 267 312 817 1016 879 954 1117 1501 1699 1669 1306 804 882 940 1054 1075 1155 1086 1087 847 586 888 965 562 340 346 395 532 522 496 552 531 459 398

GFSSE_con_mucape_345.txt.gz
CAPE
230 243 684 1150 1244 1083 1405 1584 2175 2209 1950 1824 1771 1435 1308 1542 1540 1342 1686 1402 1803 1762 1929 1120 1400 1471 1265 1312 1337 1502 1907 1798 1866 1875 1838 1703 1694 1802 1671 1657 1477 1187 1718
236 362 737 1206 1627 1228 1272 1627 2127 2221 1992 1799 1765 1640 1572 1601 1685 1756 1848 1197 1584 1900 1592 1689 1378 1142 1783 1426 1366 1400 1608 1845 2024 1671 1705 1813 1617 1657 1665 1456 1650 1349 1574
408 368 568 1058 1324 1554 1412 1566 1854 1794 1476 1306 1754 1970 1843 1712 1596 1620 1681 1560 1614 1492 1258 1356 1526 1120 1686 1841 1818 1773 1706 1729 1571 1517 1594 1141 1442 1577 1664 1582 1587 1548 1498
502 848 521 1637 1486 1015 1202 1691 1777 1725 1598 1785 1855 1787 1883 1360 1550 1413 1477 1753 1523 1573 1618 1639 1670 1711 1499 1737 1702 1481 1535 1723 1671 1529 1163 786 1108 1471 1661 1712 1679 1565 1489
742 760 1020 1543 1906 1173 1242 1383 1617 1521 1677 1908 2113 1806 1717 1589 1484 1407 1287 1461 1576 1532 1513 1637 1391 1092 1203 1459 1577 1551 1484 1454 1365 887 1135 1314 972 1414 1434 1513 1559 1560 1346
729 861 1341 1479 1608 1495 1506 1514 1339 1551 1774 1502 1559 1766 1885 1626 1553 1550 1379 1142 991 1059 987 1071 1212 1172 986 884 918 870 1149 1058 664 948 1067 1481 1169 1560 1601 1496 1474 1344 1509
1019 815 1053 1841 1734 1563 1518 1602 1661 1644 1660 1535 1916 1846 1724 1274 859 663 790 1043 1190 982 678 722 711 580 628 777 719 895 1133 1010 484 1253 959 1091 1197 1639 1540 1523 1568 1608 1547
391 1047 1156 1460 1565 1798 1561 1475 1677 1583 1702 1533 1338 1643 1380 1498 1428 777 611 682 642 741 893 768 755 544 583 781 891 905 1288 541 84 497 887 1035 1542 1685 1492 1514 1491 1585 1573
1026 919 1145 786 1237 1663 1587 1458 1527 1625 1501 1550 1690 1740 1540 1284 1144 1081 998 1121 1022 1191 691 477 448 495 537 681 910 873 1282 622 257 532 575 1132 1416 1477 1523 1464 1595 1544 1507
864 893 1466 1090 751 934 951 1609 1686 1575 1463 1505 1524 1330 1254 1354 1321 1270 1423 1162 1013 904 1058 851 719 627 788 675 831 928 1006 794 474 961 1271 930 1316 1272 1338 1438 1543 1402 1608
826 891 1085 1305 1053 1296 1392 1247 1393 1597 1150 1181 1114 1145 956 737 1033 854 976 1112 1084 879 758 820 752 670 748 712 828 729 977 625 745 720 1317 950 1137 1104 1112 1175 1519 1171 1526
666 872 1140 1085 596 812 970 1921 1687 1546 1222 1445 1479 1387 924 658 671 599 803 902 710 595 761 749 974 976 1258 848 327 843 667 672 598 838 1110 955 690 837 965 999 1221 1414 1321
650 608 906 935 948 852 1109 1346 1276 1206 1070 882 1125 741 490 596 765 956 888 709 313 358 250 455 595 1130 1092 654 502 794 315 559 513 476 453 728 173 134 637 1051 1187 1187 1298
607 694 688 570 791 855 842 895 906 528 447 273 332 636 673 795 1210 1465 1450 1037 140 145 160 454 499 57 233 853 652 600 361 305 1082 489 626 401 186 350 347 894 1024 1071 1196
352 425 380 386 792 1082 994 710 900 819 249 167 260 299 591 984 1523 1532 1566 1025 882 413 470 375 307 578 432 579 900 493 355 237 544 633 391 167 142 149 305 852 1108 1048 1068
580 266 217 215 366 785 967 914 973 768 593 493 503 808 1214 1205 1529 1400 1189 1054 920 757 703 209 141 275 523 758 1175 1006 993 793 778 697 415 196 134 96 184 445 778 994 1066
723 347 223 156 155 657 911 958 872 1009 606 935 1035 1337 1496 1536 1588 1499 1318 1144 1054 880 845 422 340 787 958 1164 1023 919 839 961 815 821 714 480 142 340 264 284 429 728 896
399 298 216 87 158 363 646 949 990 1176 1263 1361 1426 1407 1508 1634 1589 1524 1610 1376 1019 1020 808 713 720 810 1184 1002 786 942 1056 964 795 710 691 818 551 331 576 354 255 374 652
396 312 206 224 372 500 712 831 895 1031 1073 885 1163 1239 1504 1586 1732 1580 1695 1559 1773 1233 925 759 742 903 1015 649 536 565 568 1260 1239 1017 1190 962 729 462 624 703 510 424 434
367 374 311 223 425 789 859 937 883 827 1070 1034 1225 1543 1790 1584 1353 1204 1031 2127 1501 1358 959 882 1015 925 815 956 725 836 1037 1324 1242 1256 1217 910 904 853 972 1132 1057 788 695
356 339 321 307 533 735 787 799 877 877 1158 1000 1235 1775 1780 1818 1725 1415 1671 1938 1481 1497 1093 1065 939 1084 841 1045 905 1115 1114 1315 1244 1191 1341 927 970 782 1319 1111 1059 877 700
323 363 496 574 767 785 772 804 857 1075 1096 981 1418 1764 1776 1636 1728 1973 2305 1961 1627 1568 1555 1255 1132 940 974 1123 1162 1040 1090 1297 1465 1504 1444 1237 478 1172 1314 1144 896 1073 870
425 517 555 821 975 1019 903 871 1053 1218 1217 1478 1734 1666 1674 1723 1838 2535 2521 2105 1898 1821 1704 1710 1586 1459 1240 1319 1020 723 1015 924 1171 1300 1391 1021 1040 1261 1392 1310 1201 1195 1136
545 581 624 818 975 992 1173 1081 1334 1215 936 1364 1772 1678 1599 1908 2064 2460 2684 2061 1912 1847 1931 1791 1644 1479 1702 1444 1324 1146 955 1162 1053 887 1285 1189 968 1082 1176 1359 1240 1230 1179
454 567 602 883 1075 1163 1250 1398 1360 1279 957 1559 1768 1921 2253 2198 2359 2583 2807 2434 2134 1758 1987 2211 2111 1914 1647 1412 1429 1730 1818 1524 1242 1006 1258 1535 1385 1451 1325 1428 1241 1166 1163
475 607 677 946 1206 1301 1398 1410 1479 1319 1226 1277 1817 1749 1851 1990 2351 2756 2766 2675 2169 1742 2062 2045 2185 2025 2102 2074 1818 1353 1527 1714 1453 1091 955 1385 1384 1625 1516 1426 1213 1362 904